Weather History for KHHW - September, 2013

Change the Weather History Date:

Sunday, September 8, 2013

  Actual Average Record
Temperature  
Mean Temperature 88 °F -  
Max Temperature 102 °F 91 °F 102 °F (2013)
Min Temperature 74 °F 66 °F 71 °F (2014)
Cooling Degree Days 23    
Growing Degree Days 38 (Base 50)    
Moisture  
Dew Point 66 °F    
Average Humidity 50    
Maximum Humidity 84    
Minimum Humidity 27    
Precipitation  
Precipitation 0.00 in - - ()
Sea Level Pressure  
Sea Level Pressure 29.95 in    
Wind  
Wind Speed 4 mph (South)    
Max Wind Speed 9 mph    
Max Gust Speed 20 mph    
Visibility 10 miles    
Events      
Averages and records for this station are not official NWS values.
T = Trace of Precipitation, MM = Missing Value Source: NWS Daily Summary

Daily Weather History Graph

Daily Weather History Graph

Search for Another Location

Airport or City:

Trip Planner

Search our weather history database for the weather conditions in past years. The results will help you decide how hot, cold, wet, or windy it might be!

Date:

Astronomy

Sep. 08, 2013 Rise Set
Actual Time 7:00 AM CDT 7:38 PM CDT
Civil Twilight 6:35 AM CDT 8:03 PM CDT
Nautical Twilight 6:05 AM CDT 8:32 PM CDT
Astronomical Twilight 5:35 AM CDT 9:03 PM CDT
Moon 10:07 AM CDT (9/8) 9:26 PM CDT (9/8)
Length of Visible Light 13h 27m
Length of Day
12h 37m
Waxing Crescent, 11% of the Moon is Illuminated
Sep 8
Waxing Crescent
Sep 12
First Quarter
Sep 19
Full
Sep 26
Last Quarter
Oct 4
New

Hourly Weather History & Observations

Time (CDT) Temp. Heat Index Dew Point Humidity Pressure Visibility Wind Dir Wind Speed Gust Speed Precip Events Conditions
12:15 AM 84.9 °F 86.8 °F 65.3 °F 52% 29.97 in 10.0 mi South 5.8 mph - N/A   Clear
12:35 AM 84.4 °F 86.3 °F 65.5 °F 53% 29.96 in 10.0 mi SSW 5.8 mph - N/A   Clear
12:55 AM 83.5 °F 85.5 °F 65.8 °F 55% 29.96 in 10.0 mi SSW 5.8 mph - N/A   Clear
1:15 AM 83.1 °F 85.4 °F 66.4 °F 57% 29.96 in 10.0 mi SSW 3.5 mph - N/A   Clear
1:35 AM 82.9 °F 85.6 °F 67.1 °F 59% 29.96 in 10.0 mi SSW 3.5 mph - N/A   Clear
1:55 AM 82.2 °F 84.7 °F 67.3 °F 60% 29.96 in 10.0 mi SSW 3.5 mph - N/A   Clear
2:15 AM 81.5 °F 84.2 °F 67.6 °F 63% 29.96 in 10.0 mi SSW 4.6 mph - N/A   Clear
2:35 AM 80.8 °F 83.5 °F 68.0 °F 65% 29.96 in 10.0 mi SSW 3.5 mph - N/A   Clear
2:55 AM 80.6 °F 83.4 °F 68.2 °F 66% 29.97 in 10.0 mi Calm Calm - N/A   Clear
3:15 AM 79.9 °F - 68.4 °F 68% 29.96 in 10.0 mi WSW 3.5 mph - N/A   Clear
3:35 AM 79.3 °F - 68.9 °F 70% 29.96 in 10.0 mi Calm Calm - N/A   Clear
3:55 AM 79.3 °F - 68.7 °F 70% 29.97 in 10.0 mi Calm Calm - N/A   Clear
4:15 AM 78.3 °F - 68.7 °F 72% 29.97 in 10.0 mi South 3.5 mph - N/A   Clear
4:35 AM 77.9 °F - 68.9 °F 74% 29.97 in 10.0 mi South 4.6 mph - N/A   Clear
4:55 AM 77.9 °F - 68.9 °F 74% 29.97 in 10.0 mi SSW 3.5 mph - N/A   Clear
5:15 AM 77.7 °F - 68.9 °F 74% 29.97 in 10.0 mi SSW 3.5 mph - N/A   Clear
5:35 AM 77.4 °F - 69.1 °F 76% 29.97 in 10.0 mi Calm Calm - N/A   Clear
5:55 AM 76.6 °F - 68.9 °F 77% 29.98 in 10.0 mi Calm Calm - N/A   Clear
6:15 AM 75.9 °F - 68.9 °F 79% 29.98 in 10.0 mi Calm Calm - N/A   Clear
6:35 AM 75.6 °F - 68.9 °F 80% 29.98 in 10.0 mi Calm Calm - N/A   Clear
6:55 AM 74.7 °F - 68.9 °F 82% 29.98 in 10.0 mi Calm Calm - N/A   Clear
7:15 AM 74.1 °F - 69.1 °F 84% 29.99 in 10.0 mi South 3.5 mph - N/A   Clear
7:35 AM 74.5 °F - 68.9 °F 83% 29.99 in 10.0 mi Calm Calm - N/A   Clear
7:55 AM 75.4 °F - 69.4 °F 82% 30.00 in 10.0 mi Calm Calm - N/A   Clear
8:15 AM 77.9 °F - 70.2 °F 77% 30.00 in 10.0 mi Calm Calm - N/A   Clear
8:35 AM 79.9 °F - 70.0 °F 72% 30.00 in 10.0 mi SSE 3.5 mph - N/A   Clear
8:55 AM 81.5 °F 85.1 °F 70.0 °F 68% 30.00 in 10.0 mi Calm Calm - N/A   Clear
9:15 AM 83.1 °F 87.6 °F 70.5 °F 66% 30.00 in 10.0 mi Calm Calm - N/A   Clear
9:35 AM 85.5 °F 90.8 °F 71.1 °F 62% 30.00 in 10.0 mi West 4.6 mph - N/A   Clear
9:55 AM 87.1 °F 92.8 °F 71.1 °F 59% 30.00 in 10.0 mi Calm Calm - N/A   Clear
10:15 AM 88.9 °F 94.2 °F 70.5 °F 54% 30.00 in 10.0 mi North 3.5 mph - N/A   Clear
10:35 AM 90.0 °F 95.0 °F 69.8 °F 51% 30.01 in 10.0 mi Calm Calm - N/A   Clear
10:55 AM 91.6 °F 96.7 °F 69.1 °F 48% 30.00 in 10.0 mi WNW 3.5 mph - N/A   Clear
11:15 AM 93.0 °F 98.4 °F 69.4 °F 46% 30.00 in 10.0 mi SW 3.5 mph - N/A   Clear
11:35 AM 95.2 °F 99.9 °F 68.2 °F 41% 29.99 in 10.0 mi Calm Calm - N/A   Clear
11:55 AM 96.6 °F 100.9 °F 67.1 °F 38% 29.99 in 10.0 mi SW 6.9 mph - N/A   Clear
12:15 PM 97.3 °F 101.7 °F 67.3 °F 37% 29.98 in 10.0 mi SSW 5.8 mph - N/A   Clear
12:35 PM 97.3 °F 101.1 °F 66.6 °F 36% 29.98 in 10.0 mi Calm Calm - N/A   Clear
12:55 PM 97.7 °F 101.7 °F 66.6 °F 36% 29.97 in 10.0 mi South 5.8 mph - N/A   Clear
1:15 PM 99.5 °F 103.2 °F 65.5 °F 33% 29.97 in 10.0 mi SSW 6.9 mph - N/A   Clear
1:35 PM 99.1 °F 102.6 °F 65.7 °F 33% 29.96 in 10.0 mi East 6.9 mph - N/A   Clear
1:55 PM 100.0 °F 103.6 °F 65.7 °F 32% 29.95 in 10.0 mi SW 4.6 mph - N/A   Clear
2:15 PM 99.1 °F 102.6 °F 65.1 °F 33% 29.95 in 10.0 mi SSE 3.5 mph - N/A   Scattered Clouds
2:35 PM 100.8 °F 103.6 °F 63.9 °F 30% 29.93 in 10.0 mi South 5.8 mph 9.2 mph N/A   Scattered Clouds
2:55 PM 101.3 °F 103.3 °F 62.8 °F 28% 29.93 in 10.0 mi South 9.2 mph 19.6 mph N/A   Scattered Clouds
3:15 PM 101.5 °F 103.6 °F 62.2 °F 28% 29.92 in 10.0 mi South 4.6 mph - N/A   Clear
3:35 PM 100.2 °F 102.1 °F 63.0 °F 29% 29.92 in 10.0 mi SE 4.6 mph 16.1 mph N/A   Clear
3:55 PM 101.5 °F 103.0 °F 62.1 °F 27% 29.91 in 10.0 mi South 6.9 mph 16.1 mph N/A   Clear
4:15 PM 102.4 °F 104.5 °F 62.6 °F 27% 29.90 in 10.0 mi SSW 5.8 mph - N/A   Scattered Clouds
4:35 PM 101.8 °F 103.6 °F 61.5 °F 27% 29.90 in 10.0 mi South 5.8 mph - N/A   Scattered Clouds
4:55 PM 102.2 °F 104.2 °F 62.8 °F 27% 29.90 in 10.0 mi SSE 8.1 mph - N/A   Scattered Clouds
5:15 PM 101.8 °F 103.6 °F 62.4 °F 27% 29.89 in 10.0 mi South 5.8 mph - N/A   Clear
5:35 PM 100.6 °F 102.1 °F 61.9 °F 28% 29.89 in 10.0 mi South 9.2 mph - N/A   Scattered Clouds
5:55 PM 99.7 °F 100.7 °F 61.3 °F 28% 29.89 in 10.0 mi South 6.9 mph - N/A   Clear
6:15 PM 99.9 °F 101.5 °F 61.9 °F 29% 29.89 in 10.0 mi South 5.8 mph - N/A   Clear
6:35 PM 99.0 °F 99.5 °F 60.4 °F 28% 29.89 in 10.0 mi South 5.8 mph - N/A   Clear
6:55 PM 97.9 °F 98.8 °F 61.2 °F 30% 29.89 in 10.0 mi South 4.6 mph - N/A   Clear
7:15 PM 96.8 °F 97.5 °F 61.3 °F 31% 29.89 in 10.0 mi SSE 4.6 mph - N/A   Clear
7:35 PM 94.8 °F 95.3 °F 61.7 °F 33% 29.90 in 10.0 mi Calm Calm - N/A   Clear
7:55 PM 93.2 °F 93.7 °F 61.9 °F 35% 29.90 in 10.0 mi South 3.5 mph - N/A   Clear
8:15 PM 92.3 °F 93.1 °F 62.2 °F 37% 29.90 in 10.0 mi Calm Calm - N/A   Clear
8:35 PM 91.2 °F 91.8 °F 62.6 °F 38% 29.91 in 10.0 mi Calm Calm - N/A   Clear
8:55 PM 90.7 °F 91.3 °F 62.8 °F 39% 29.91 in 10.0 mi South 3.5 mph - N/A   Clear
9:15 PM 89.8 °F 90.7 °F 63.1 °F 41% 29.92 in 10.0 mi South 3.5 mph - N/A   Clear
9:35 PM 88.9 °F 89.7 °F 63.3 °F 42% 29.93 in 10.0 mi South 3.5 mph - N/A   Clear
9:55 PM 88.2 °F 89.0 °F 63.3 °F 43% 29.93 in 10.0 mi South 4.6 mph - N/A   Clear
10:15 PM 87.8 °F 88.8 °F 63.5 °F 44% 29.93 in 10.0 mi South 3.5 mph - N/A   Clear
10:35 PM 86.5 °F 87.6 °F 63.5 °F 46% 29.94 in 10.0 mi South 4.6 mph - N/A   Clear
10:55 PM 86.9 °F 87.8 °F 63.5 °F 45% 29.94 in 10.0 mi South 4.6 mph - N/A   Clear
11:15 PM 85.8 °F 86.8 °F 63.5 °F 47% 29.94 in 10.0 mi SSW 4.6 mph - N/A   Clear
11:35 PM 85.3 °F 86.4 °F 63.5 °F 48% 29.94 in 10.0 mi South 3.5 mph - N/A   Clear
11:55 PM 84.2 °F 85.4 °F 63.7 °F 50% 29.93 in 10.0 mi South 3.5 mph - N/A   Clear